Location: Mount Cross
(36.6390°N, 79.4878°W)
Time: 04:31:05
(UTC+00:00)

Vanguard 3 - Visible Passes

Search period start: 27 February 2024 00:00
Search period end: 08 March 2024 00:00
Orbit: 508 x 3239 km, 33.4° (Epoch: 26 February)

Date Brightness Start Highest point End Pass type
(mag) Time Alt. Az. Time Alt. Az. Time Alt. Az.
27 Feb 10.2 00:13:20 10° SW 00:30:26 53° SSE 00:43:15 24° E visible
27 Feb 9.7 02:26:50 10° WSW 02:46:40 76° S 02:47:34 75° SSE visible
27 Feb 10.7 04:43:32 10° W 04:51:52 32° W 04:51:52 32° W visible
28 Feb 10.0 01:07:43 10° WSW 01:26:14 68° SSE 01:34:50 42° E visible
28 Feb 9.9 03:22:54 10° W 03:39:08 66° WSW 03:39:08 66° WSW visible
28 Feb 11.2 05:40:15 10° W 05:43:26 17° W 05:43:26 17° W visible
28 Feb 10.2 23:49:47 10° SW 00:06:11 55° SSE 00:22:04 17° E visible
29 Feb 9.7 02:03:03 10° WSW 02:22:30 78° S 02:26:22 65° ESE visible
29 Feb 10.4 04:19:20 10° W 04:30:39 43° W 04:30:39 43° W visible
01 Mar 10.0 00:44:11 10° WSW 01:01:58 70° SSE 01:13:31 32° E visible
01 Mar 9.8 02:58:58 10° W 03:17:49 78° SW 03:17:49 78° SW visible
01 Mar 10.9 05:15:57 10° W 05:22:06 25° W 05:22:06 25° W visible
01 Mar 10.2 23:26:27 10° SW 23:41:57 57° SSE 00:00:39 11° E visible
02 Mar 9.9 01:39:24 10° WSW 01:58:16 79° S 02:04:55 53° E visible
02 Mar 10.2 03:55:14 10° W 04:09:12 54° W 04:09:12 54° W visible
02 Mar 11.4 06:12:51 10° W 06:13:30 11° W 06:13:30 11° W visible
03 Mar 10.0 00:20:48 10° WSW 00:37:42 71° SSE 00:51:59 24° E visible
03 Mar 9.7 02:35:11 10° W 02:54:46 80° S 02:56:16 77° SE visible
03 Mar 10.7 04:51:42 10° W 05:00:33 33° W 05:00:33 33° W visible
04 Mar 9.9 01:15:55 10° WSW 01:34:01 80° S 01:43:18 42° E visible
04 Mar 10.0 03:31:15 10° W 03:47:34 64° WSW 03:47:34 64° WSW visible
04 Mar 11.2 05:48:34 10° W 05:51:51 17° W 05:51:51 17° W visible
04 Mar 10.0 23:57:35 10° WSW 00:13:30 73° SSE 00:30:18 18° E visible
05 Mar 9.8 02:11:31 10° W 02:30:32 80° S 02:34:35 65° ESE visible
05 Mar 10.5 04:27:34 10° W 04:38:51 40° W 04:38:51 40° W visible
06 Mar 10.0 00:52:35 10° WSW 01:09:47 80° S 01:21:32 34° E visible
06 Mar 9.9 03:07:25 10° W 03:25:49 71° SW 03:25:49 71° SW visible
06 Mar 11.0 05:24:21 10° W 05:30:05 22° W 05:30:05 22° W visible
06 Mar 10.0 23:34:30 10° WSW 23:49:22 74° SSE 00:08:30 12° E visible
07 Mar 9.9 01:48:01 10° W 02:06:16 79° S 02:12:46 54° ESE visible
07 Mar 10.3 04:03:34 10° W 04:17:03 48° WSW 04:17:03 48° WSW visible
